| time (UTC) | temp C | wind direction | speed KPH | gust KPH | rain 1hr cm | rain 24hr cm | rain mn cm | humidity % | barometer mb |
| 20260509001852 | 8 | 350 | 8.0 | 0.0 | 0.00 | 0.00 | 0.00 | 81 | |
| 20260509000211 | 8 | 350 | 4.8 | 0.0 | 0.00 | 0.00 | 0.00 | 87 | 1020.0 |
| 20260508233103 | 8 | 320 | 4.8 | 0.0 | 0.00 | 0.00 | 0.00 | 87 | 1020.0 |
| 20260508231851 | 8 | 350 | 3.2 | 0.0 | 0.00 | 0.00 | 0.00 | 81 | |
| 20260508223103 | 10 | 330 | 4.8 | 0.0 | 0.00 | 0.00 | 0.00 | 81 | 1020.0 |
| 20260508222051 | 8 | 350 | 8.0 | 0.0 | 0.00 | 0.00 | 0.00 | 81 | |
| 20260508220103 | 10 | 340 | 4.8 | 0.0 | 0.00 | 0.00 | 0.00 | 81 | 1020.0 |
| 20260508213103 | 10 | 340 | 4.8 | 0.0 | 0.00 | 0.00 | 0.00 | 81 | 1020.0 |
| 20260508211852 | 8 | 340 | 8.0 | 0.0 | 0.00 | 0.00 | 0.00 | 81 | |
| 20260508210209 | 8 | 330 | 8.0 | 0.0 | 0.00 | 0.00 | 0.00 | 87 | 1020.0 |
| 20260508203103 | 8 | 330 | 8.0 | 0.0 | 0.00 | 0.00 | 0.00 | 87 | 1019.0 |
| 20260508201854 | 10 | 340 | 8.0 | 0.0 | 0.00 | 0.00 | 0.00 | 76 | |
| 20260508200103 | 10 | 350 | 8.0 | 0.0 | 0.00 | 0.00 | 0.00 | 81 | 1019.0 |
| 20260508193103 | 10 | 350 | 8.0 | 0.0 | 0.00 | 0.00 | 0.00 | 81 | 1019.0 |
| 20260508191952 | 10 | 350 | 8.0 | 0.0 | 0.00 | 0.00 | 0.00 | 76 | |
| 20260508190211 | 10 | 350 | 4.8 | 0.0 | 0.00 | 0.00 | 0.00 | 81 | 1019.0 |
| 20260508183102 | 11 | 350 | 9.7 | 0.0 | 0.00 | 0.00 | 0.00 | 76 | 1018.0 |
| 20260508181851 | 12 | 350 | 11.3 | 0.0 | 0.00 | 0.00 | 0.00 | 66 | |
| 20260508180302 | 12 | 350 | 9.7 | 0.0 | 0.00 | 0.00 | 0.00 | 71 | 1018.0 |
| 20260508173102 | 12 | 360 | 9.7 | 0.0 | 0.00 | 0.00 | 0.00 | 66 | 1018.0 |
| 20260508171850 | 12 | 360 | 8.0 | 0.0 | 0.00 | 0.00 | 0.00 | 66 | |
| 20260508163103 | 13 | 10 | 8.0 | 0.0 | 0.00 | 0.00 | 0.00 | 62 | 1018.0 |
| 20260508162052 | 13 | 350 | 11.3 | 0.0 | 0.00 | 0.00 | 0.00 | 62 | |
| 20260508160212 | 13 | 360 | 11.3 | 0.0 | 0.00 | 0.00 | 0.00 | 67 | 1018.0 |
| 20260508153103 | 13 | 360 | 11.3 | 0.0 | 0.00 | 0.00 | 0.00 | 62 | 1018.0 |
| 20260508151855 | 13 | 340 | 11.3 | 0.0 | 0.00 | 0.00 | 0.00 | 58 | |
| 20260508150211 | 15 | 360 | 11.3 | 0.0 | 0.00 | 0.00 | 0.00 | 54 | 1018.0 |
| 20260508143102 | 13 | 360 | 9.7 | 0.0 | 0.00 | 0.00 | 0.00 | 58 | 1018.0 |
| 20260508141853 | 13 | 330 | 8.0 | 0.0 | 0.00 | 0.00 | 0.00 | 58 | |
| 20260508140212 | 13 | 330 | 8.0 | 0.0 | 0.00 | 0.00 | 0.00 | 58 | 1018.0 |
| 20260508133103 | 13 | 10 | 8.0 | 0.0 | 0.00 | 0.00 | 0.00 | 62 | 1018.0 |
| 20260508131951 | 13 | 350 | 11.3 | 0.0 | 0.00 | 0.00 | 0.00 | 62 | |
| 20260508130210 | 13 | 10 | 9.7 | 0.0 | 0.00 | 0.00 | 0.00 | 62 | 1018.0 |
| 20260508123103 | 12 | 30 | 9.7 | 0.0 | 0.00 | 0.00 | 0.00 | 66 | 1018.0 |
| 20260508121851 | 12 | 360 | 11.3 | 0.0 | 0.00 | 0.00 | 0.00 | 62 | |
| 20260508120211 | 12 | 360 | 12.9 | 0.0 | 0.00 | 0.00 | 0.00 | 66 | 1018.0 |
| 20260508113103 | 12 | 360 | 9.7 | 0.0 | 0.00 | 0.00 | 0.00 | 66 | 1018.0 |
| 20260508111853 | 12 | 360 | 8.0 | 0.0 | 0.00 | 0.00 | 0.00 | 66 | |
| 20260508103103 | 12 | 340 | 12.9 | 0.0 | 0.00 | 0.00 | 0.00 | 71 | 1018.0 |
| 20260508102053 | 12 | 330 | 11.3 | 0.0 | 0.00 | 0.00 | 0.00 | 66 | |
| 20260508100210 | 12 | 320 | 9.7 | 0.0 | 0.00 | 0.00 | 0.00 | 71 | 1018.0 |
| 20260508093103 | 11 | 310 | 11.3 | 0.0 | 0.00 | 0.00 | 0.00 | 76 | 1019.0 |
| 20260508091851 | 11 | 310 | 11.3 | 0.0 | 0.00 | 0.00 | 0.00 | 76 | |
| 20260508090211 | 11 | 300 | 11.3 | 0.0 | 0.00 | 0.00 | 0.00 | 76 | 1018.0 |
| 20260508083103 | 10 | 310 | 9.7 | 0.0 | 0.00 | 0.00 | 0.00 | 81 | 1018.0 |
| 20260508081851 | 10 | 300 | 11.3 | 0.0 | 0.00 | 0.00 | 0.00 | 76 | |
| 20260508080210 | 10 | 300 | 11.3 | 0.0 | 0.00 | 0.00 | 0.00 | 76 | 1018.0 |
| 20260508073103 | 10 | 300 | 9.7 | 0.0 | 0.00 | 0.00 | 0.00 | 76 | 1018.0 |
| 20260508071954 | 8 | 330 | 11.3 | 0.0 | 0.00 | 0.00 | 0.00 | 81 | |
| 20260508063102 | 8 | 320 | 9.7 | 0.0 | 0.00 | 0.00 | 0.00 | 81 | 1017.0 |
| 20260508061853 | 8 | 310 | 8.0 | 0.0 | 0.00 | 0.00 | 0.00 | 81 | |
| 20260508060103 | 8 | 320 | 8.0 | 0.0 | 0.00 | 0.00 | 0.00 | 81 | 1017.0 |
| 20260508053102 | 7 | 330 | 11.3 | 0.0 | 0.00 | 0.00 | 0.00 | 87 | 1017.0 |
| 20260508051853 | 7 | 310 | 11.3 | 0.0 | 0.00 | 0.00 | 0.00 | 87 | |
| 20260508043103 | 7 | 310 | 9.7 | 0.0 | 0.00 | 0.00 | 0.00 | 93 | 1017.0 |
| 20260508042055 | 7 | 320 | 8.0 | 0.0 | 0.00 | 0.00 | 0.00 | 87 | |
| 20260508040104 | 7 | 310 | 8.0 | 0.0 | 0.00 | 0.00 | 0.00 | 93 | 1017.0 |
| 20260508035402 | 7 | 300 | 8.0 | 0.0 | 0.00 | 0.00 | 0.00 | 93 | 1017.0 |
| 20260508033802 | 7 | 290 | 4.8 | 0.0 | 0.00 | 0.00 | 0.00 | 87 | 1017.0 |
| 20260508033102 | 7 | 300 | 4.8 | 0.0 | 0.00 | 0.00 | 0.00 | 87 | 1016.0 |
| 20260508031852 | 7 | 330 | 8.0 | 0.0 | 0.00 | 0.00 | 0.00 | 87 | |
| 20260508031808 | 7 | 320 | 4.8 | 0.0 | 0.00 | 0.00 | 0.00 | 87 | 1016.0 |
| 20260508030103 | 7 | 320 | 8.0 | 0.0 | 0.00 | 0.00 | 0.00 | 93 | 1016.0 |
| 20260508023102 | 7 | 330 | 8.0 | 0.0 | 0.00 | 0.00 | 0.00 | 93 | 1016.0 |
| 20260508021852 | 7 | 330 | 11.3 | 0.0 | 0.00 | 0.00 | 0.00 | 93 | |
| 20260508020212 | 8 | 330 | 8.0 | 0.0 | 0.00 | 0.00 | 0.00 | 87 | 1016.0 |
| 20260508013103 | 8 | 320 | 11.3 | 0.0 | 0.00 | 0.00 | 0.00 | 87 | 1016.0 |
| 20260508011951 | 8 | 320 | 11.3 | 0.0 | 0.00 | 0.00 | 0.00 | 87 | |
| 20260508010211 | 8 | 320 | 11.3 | 0.0 | 0.00 | 0.00 | 0.00 | 87 | 1016.0 |
| 20260508003103 | 8 | 310 | 11.3 | 0.0 | 0.00 | 0.00 | 0.00 | 87 | 1016.0 |